Location: *
(37.5724°S, 58.0067°E)
Time: 03:11:34
(UTC+00:00)

CZ-4 R/B - Pass Details

Date: 21 January 2021
Orbit: 531 x 598 km, 97.7° (Epoch: 07 March)

Event Time Altitude Azimuth Distance (km) Brightness Sun altitude
Rises 15:51:17 0° 173° (S) 2,871 5.3 -4.9°
Reaches altitude 10° 15:53:29 10° 177° (S) 1,966 4.5 -5.3°
Maximum altitude 15:57:41 56° 254° (WSW) 726 2.4 -6.0°
Drops below altitude 10° 16:01:50 10° 332° (NNW) 1,945 4.1 -6.7°
Sets 16:04:01 0° 336° (NNW) 2,837 4.9 -7.0°
